Flag for U.S.A. Weather past 2 weeks in Wright, Florida, U.S.A.

Now
82 °F

Clear.


Feels Like: 87 °F
Forecast: 78 / 93 °F
Wind: 1 mph from West

Location: Hurlburt Field

Current Time: Jul 29, 2015 at 2:54:53 AM

Latest Report: Jul 29, 2015 at 1:58 AM


Visibility: 10 mi

Pressure: 29.94 "Hg

Humidity: 78%

Dew point: 74 °F

Location of WrightLocation

Historic Weather in Wright — Graph

°F

Wright temperature yesterday

Maximum temperature yesterday: 94 °F (at 1:58 PM)
Minimum temperature yesterday: 76 °F (at 3:58 AM)
Average temperature yesterday: 86 °F

Past Weeks' High & Low Weather Summary

 TemperatureHumidityPressure
High95 °F (Jul 22, 9:55 AM)91% (Jul 18, 1:58 AM)30.03 "Hg (Jul 18, 1:58 AM)
Low73 °F (Jul 27, 4:58 AM)41% (Jul 27, 11:58 AM)29.82 "Hg (Jul 14, 5:58 PM)
Average84 °F74%29.94 "Hg
* Reported Jul 14 12:58 AM — Jul 29 12:58 AM, Wright, Weather by CustomWeather, © 2015

Note: Actual official high and low records may vary slightly from our data, if they occured in-between our weather recording intervals... More about our weather records

Advertising

Wright weather history for previous 24 hours

 ConditionsComfort  
Time TempWeatherWind HumidityBarometerVisibility
12:58 AM
Wed, Jul 29
82 °FClear.2 mph77%29.96 "Hg10 mi
11:58 PM
Tue, Jul 28
84 °FPassing clouds.2 mph73%29.97 "Hg10 mi
10:58 PM85 °FPassing clouds.5 mph71%29.97 "Hg10 mi
9:58 PM85 °FPassing clouds.3 mph76%29.97 "Hg10 mi
8:58 PM85 °FClear.3 mph78%29.94 "Hg10 mi
7:58 PM87 °FPassing clouds.6 mph71%29.94 "Hg10 mi
6:58 PM90 °FPassing clouds.3 mph58%29.92 "Hg10 mi
5:58 PM90 °FSunny.8 mph61%29.91 "Hg10 mi
4:58 PM92 °FSunny.10 mph45%29.92 "Hg10 mi
3:58 PM93 °FSunny.10 mph50%29.93 "Hg10 mi
2:58 PM93 °FPassing clouds.13 mph54%29.94 "Hg10 mi
1:58 PM94 °FScattered clouds.8 mph49%29.95 "Hg10 mi
12:58 PM92 °FPartly sunny.9 mph56%29.97 "Hg10 mi
11:58 AM93 °FPassing clouds.3 mph47%29.97 "Hg10 mi
10:58 AM93 °FSunny.No wind51%29.98 "Hg10 mi
9:58 AM90 °FSunny.7 mph57%29.99 "Hg10 mi
8:58 AM87 °FSunny.No wind63%29.99 "Hg10 mi
7:58 AM83 °FSunny.5 mph72%29.98 "Hg10 mi
6:58 AM78 °FScattered clouds.5 mph85%29.97 "Hg10 mi
5:58 AM77 °FClear.3 mph85%29.95 "Hg10 mi
4:58 AM78 °FClear.3 mph85%29.93 "Hg10 mi
3:58 AM76 °FClear.5 mph87%29.91 "Hg10 mi
2:58 AM79 °FClear.2 mph82%29.92 "Hg10 mi
Weather by CustomWeather, © 2015

See weather overviewHow to use our weather pages